[[{"header":{"parameterUnit":"m.s-1","parameterCategory":1,"la1":30.2991,"la2":30.254,"lo1":-89.0895,"lo2":-89.0444,"dy":0.0017,"dx":0.0017,"nx":28,"ny":28,"refTime":"2024-05-04T21:00:00:Z","depth":0,"parameterNumber":2,"parameterNumberName":"U-component_of_WINDS"},"data":[0,0,0,0,0,0,0,0,0,0,0,0,0,0,0,0,0,0,0,0,0,0,0,0,0,0,0,0,0,0,0,0,0,0,0,0,0,0,0,0,0,0,0,0,0,0,0,0,0,0,0,0,0,0,0,0,0,0,-1.446,-1.4459,0,-1.443,-1.4429,-1.4429,-1.4364,-1.4363,-1.4362,-1.4361,-1.4332,-1.4332,-1.4333,0,0,0,0,0,0,0,0,0,0,0,0,0,-1.4463,-1.4464,-1.446,-1.4459,-1.4459,-1.443,-1.4429,-1.4429,-1.4365,-1.4363,-1.4361,-1.436,-1.4332,-1.4332,-1.4333,0,0,0,0,0,0,0,0,0,0,0,0,0,-1.4451,-1.4464,-1.446,-1.4423,-1.442,-1.443,-1.4429,-1.4429,-1.4365,-1.4363,-1.4361,-1.4359,-1.4332,-1.4332,-1.4333,-1.4377,0,0,-1.4335,-1.4335,0,0,0,0,0,0,0,0,-1.4451,-1.445,-1.4429,-1.4426,-1.4422,-1.4399,-1.442,-1.4411,-1.4365,-1.4386,-1.436,-1.4358,-1.4356,-1.4354,-1.4353,-1.4375,-1.4374,-1.4335,-1.4335,-1.4336,-1.4336,0,0,0,0,0,0,0,-1.4452,-1.4451,-1.4448,-1.4429,-1.4424,-1.4409,-1.4405,-1.4418,-1.4382,-1.4384,-1.4379,-1.4376,-1.4353,-1.4353,-1.4352,-1.4374,-1.4335,-1.4336,-1.4336,-1.4336,-1.4432,-1.4434,0,0,0,0,0,0,-1.4458,-1.4453,-1.4449,-1.4447,-1.4432,-1.4411,-1.4406,-1.4408,-1.4382,-1.4376,-1.4378,-1.4373,-1.4352,-1.4351,-1.4351,-1.4401,-1.4336,-1.4336,-1.4337,-1.443,-1.4432,-1.4435,0,0,0,0,0,0,-1.4459,-1.4458,-1.445,-1.4448,-1.4446,-1.4413,-1.4415,-1.4409,-1.4408,-1.4378,-1.4371,-1.4384,-1.4351,-1.435,-1.4371,-1.4399,-1.4337,-1.4337,-1.4427,-1.443,-1.4433,-1.4502,0,0,0,0,0,0,-1.4459,-1.4459,-1.4474,-1.4449,-1.4446,-1.447,-1.4417,-1.4409,-1.4409,-1.4402,-1.4381,-1.4376,-1.4349,-1.437,-1.4372,-1.4399,-1.4338,-1.4424,-1.4429,-1.4432,-1.4497,-1.4507,-1.4515,0,0,0,0,0,-1.4459,-1.4495,-1.4476,-1.4475,-1.4465,-1.4472,-1.447,-1.4438,-1.4411,-1.4427,-1.4408,-1.4376,-1.4396,-1.4373,-1.4374,-1.4402,-1.4423,-1.4427,-1.4432,-1.4492,-1.4505,-1.4515,0,0,0,0,0,0,-1.4525,-1.4491,-1.4469,-1.4497,-1.4488,-1.4461,-1.4479,-1.4452,-1.445,-1.4445,-1.4406,-1.4402,-1.4428,-1.4417,-1.4392,-1.4444,-1.4404,-1.4409,-1.445,-1.4461,-1.447,-1.4472,-1.4338,0,0,0,0,0,-1.4542,-1.455,-1.452,-1.4548,-1.4544,-1.4513,-1.4515,-1.4491,-1.448,-1.4476,-1.4458,-1.4449,-1.4453,-1.4456,-1.4459,-1.4495,-1.449,-1.4515,-1.4524,-1.4532,-1.4537,-1.4557,-1.4567,-1.445,-1.445,-1.445,0,0,-1.4579,-1.4561,-1.4568,-1.4561,-1.455,-1.456,-1.451,-1.4522,-1.4529,-1.4478,-1.4496,-1.4484,-1.4471,-1.45,-1.4512,-1.4492,-1.4568,-1.4538,-1.4545,-1.4545,-1.4563,-1.4574,-1.4584,-1.4453,-1.4453,-1.4452,0,0,-1.465,-1.4638,-1.466,-1.4651,-1.4636,-1.4615,-1.4621,-1.4598,-1.4587,-1.4606,-1.4568,-1.4576,-1.4584,-1.4577,-1.4574,-1.4645,-1.4616,-1.4647,-1.4695,-1.4715,-1.4724,-1.4732,-1.4758,-1.4768,-1.4652,-1.4652,-1.4652,0,-1.4698,-1.4709,-1.4675,-1.4689,-1.4688,-1.4642,-1.4665,-1.4658,-1.4645,-1.4646,-1.4623,-1.4632,-1.4621,-1.4648,-1.4666,-1.4665,-1.4671,-1.4649,-1.4726,-1.4733,-1.474,-1.4765,-1.4774,-1.4656,-1.4656,-1.4655,-1.4655,0,-1.4769,-1.4778,-1.4798,-1.4786,-1.4787,-1.4806,-1.4775,-1.478,-1.4757,-1.474,-1.476,-1.4744,-1.4743,-1.4748,-1.4725,-1.4773,-1.476,-1.4732,-1.4692,-1.4756,-1.4778,-1.4787,-1.4662,-1.466,-1.4659,-1.4658,0,0,-1.4879,-1.485,-1.4857,-1.4852,-1.4833,-1.484,-1.4858,-1.4856,-1.4862,-1.4855,-1.4869,-1.4877,-1.4852,-1.4849,-1.4826,-1.4843,-1.4901,-1.4813,-1.4812,-1.483,-1.4953,-1.4975,-1.4986,-1.4882,-1.4884,-1.4885,-1.4954,0,-1.4946,-1.4974,-1.4944,-1.4978,-1.4986,-1.4944,-1.4959,-1.495,-1.4935,-1.494,-1.4923,-1.493,-1.4895,-1.4893,-1.4908,-1.4891,-1.4925,-1.4885,-1.4896,-1.4897,-1.49,-1.4997,-1.5019,-1.5086,-1.4963,-1.4964,-1.4965,0,-1.5028,-1.5025,-1.506,-1.504,-1.5042,-1.5057,-1.5053,-1.5059,-1.5049,-1.5036,-1.5034,-1.5006,-1.5023,-1.4984,-1.5008,-1.4981,-1.4984,-1.4976,-1.4978,-1.4978,-1.4935,-1.5,-1.5106,-1.5116,-1.4979,-1.4978,-1.4977,0,-1.5106,-1.511,-1.5132,-1.5129,-1.5106,-1.5117,-1.5109,-1.5096,-1.5097,-1.5095,-1.5096,-1.5096,-1.5096,-1.5097,-1.5071,-1.5045,-1.5098,-1.5057,-1.5089,-1.509,-1.5102,-1.5101,-1.521,-1.5104,-1.5104,-1.5103,-1.5103,0,-1.5183,-1.5206,-1.5167,-1.518,-1.5205,-1.5171,-1.5198,-1.5184,-1.5174,-1.5185,-1.5149,-1.516,-1.5124,-1.5132,-1.5112,-1.5135,-1.5135,-1.5126,-1.512,-1.5129,-1.513,-1.513,-1.5125,-1.5106,-1.5105,-1.5105,-1.5104,0,-1.5274,-1.5248,-1.5269,-1.5246,-1.5241,-1.5261,-1.5242,-1.5254,-1.5236,-1.5251,-1.5252,-1.5225,-1.5232,-1.5206,-1.5209,-1.5196,-1.523,-1.5216,-1.5233,-1.5229,-1.5263,-1.526,-1.5375,-1.5389,-1.5274,-1.5275,-1.5276,0,-1.5325,-1.5342,-1.5321,-1.5326,-1.5319,-1.5327,-1.5328,-1.5297,-1.53,-1.529,-1.5304,-1.5308,-1.531,-1.5324,-1.5305,-1.5308,-1.5294,-1.5335,-1.5294,-1.5303,-1.5295,-1.5295,-1.5297,-1.5343,-1.5344,-1.5345,-1.5346,0,-1.5419,-1.5406,-1.5409,-1.5409,-1.5411,-1.5409,-1.5405,-1.5411,-1.5377,-1.5383,-1.539,-1.5391,-1.5395,-1.54,-1.5399,-1.5391,-1.5364,-1.5359,-1.5367,-1.5376,-1.5385,-1.5381,-1.5256,-1.5357,-1.5356,-1.5355,-1.5354,-1.5354,-1.5492,-1.5505,-1.5493,-1.5498,-1.5492,-1.5489,-1.5499,-1.5484,-1.5489,-1.5489,-1.547,-1.5482,-1.5472,-1.5468,-1.5463,-1.5472,-1.5453,-1.5464,-1.5467,-1.547,-1.5476,-1.5384,-1.5471,-1.5471,-1.5471,-1.547,-1.547,0,-1.5584,-1.5575,-1.558,-1.5575,-1.558,-1.5553,-1.5548,-1.5553,-1.5564,-1.5557,-1.556,-1.5569,-1.5574,-1.5556,-1.5559,-1.557,-1.5558,-1.5572,-1.5571,-1.557,-1.5492,-1.5485,-1.5582,-1.5582,-1.5582,-1.5582,-1.5582,-1.5582,-1.5633,-1.5654,-1.564,-1.5659,-1.5649,-1.566,-1.5659,-1.5656,-1.5651,-1.5663,-1.5667,-1.5655,-1.5644,-1.5646,-1.5651,-1.5645,-1.5648,-1.5667,-1.5658,-1.5586,-1.5575,-1.5565,-1.5558,-1.5668,-1.5668,-1.5734,-1.5735,-1.5736]},{"header":{"parameterUnit":"m.s-1","parameterCategory":1,"la1":30.2991,"la2":30.254,"lo1":-89.0895,"lo2":-89.0444,"dy":0.0017,"dx":0.0017,"nx":28,"ny":28,"refTime":"2024-05-04T21:00:00:Z","depth":0,"parameterNumber":3,"parameterNumberName":"V-component_of_WINDS"},"data":[0,0,0,0,0,0,0,0,0,0,0,0,0,0,0,0,0,0,0,0,0,0,0,0,0,0,0,0,0,0,0,0,0,0,0,0,0,0,0,0,0,0,0,0,0,0,0,0,0,0,0,0,0,0,0,0,0,0,0.2146,0.2147,0,0.2171,0.2171,0.2172,0.2177,0.2177,0.2177,0.2177,0.22,0.22,0.2201,0,0,0,0,0,0,0,0,0,0,0,0,0,0.2102,0.2103,0.2146,0.2147,0.2147,0.2171,0.2171,0.2172,0.2177,0.2177,0.2177,0.2176,0.2199,0.22,0.2201,0,0,0,0,0,0,0,0,0,0,0,0,0,0.2124,0.2103,0.2146,0.2153,0.2153,0.2171,0.2171,0.2172,0.2177,0.2177,0.2177,0.2176,0.2199,0.22,0.2201,0.2214,0,0,0.2205,0.2206,0,0,0,0,0,0,0,0,0.2122,0.2125,0.2151,0.2152,0.2153,0.2171,0.2164,0.2186,0.2177,0.2168,0.2177,0.2176,0.219,0.2192,0.2197,0.2215,0.2216,0.2205,0.2206,0.2206,0.2207,0,0,0,0,0,0,0,0.2121,0.2124,0.2156,0.2152,0.2153,0.2154,0.2156,0.2168,0.218,0.2169,0.2169,0.2172,0.2191,0.2196,0.2198,0.2216,0.2205,0.2206,0.2207,0.2207,0.2246,0.2247,0,0,0,0,0,0,0.2119,0.2123,0.2155,0.2157,0.2137,0.2155,0.2158,0.2165,0.218,0.2182,0.2172,0.2172,0.2194,0.2196,0.2199,0.2215,0.2206,0.2207,0.2208,0.2246,0.2246,0.2247,0,0,0,0,0,0,0.2118,0.2121,0.2154,0.214,0.2144,0.2156,0.2164,0.2166,0.2171,0.2183,0.2185,0.2176,0.2194,0.2197,0.221,0.2216,0.2208,0.2209,0.2246,0.2246,0.2247,0.2247,0,0,0,0,0,0,0.2116,0.2121,0.2126,0.214,0.2145,0.2166,0.2164,0.2167,0.2174,0.2174,0.2187,0.2189,0.2194,0.2209,0.2212,0.2217,0.221,0.2245,0.2246,0.2246,0.2246,0.2247,0.2248,0,0,0,0,0,0.2115,0.2124,0.2126,0.213,0.2152,0.2166,0.2169,0.2176,0.2174,0.2179,0.2187,0.2188,0.2215,0.221,0.2213,0.2219,0.2245,0.2246,0.2246,0.2246,0.2247,0.2248,0,0,0,0,0,0,0.2109,0.2126,0.2129,0.2143,0.2153,0.2167,0.2174,0.2177,0.2187,0.2186,0.2194,0.2197,0.221,0.2216,0.221,0.2232,0.223,0.2231,0.2228,0.2229,0.223,0.2228,0.2211,0,0,0,0,0,0.211,0.2121,0.2135,0.2146,0.2152,0.2162,0.2168,0.2173,0.2184,0.2188,0.2196,0.2206,0.2216,0.2223,0.2233,0.2247,0.225,0.2253,0.2254,0.2254,0.2255,0.2264,0.2265,0.2249,0.2249,0.2249,0,0,0.2111,0.2122,0.2128,0.2146,0.2154,0.2165,0.2165,0.2177,0.2185,0.2189,0.2203,0.2209,0.2221,0.2235,0.2241,0.224,0.2261,0.2255,0.2256,0.2256,0.2265,0.2266,0.2268,0.225,0.225,0.225,0,0,0.2119,0.2128,0.2139,0.2148,0.2161,0.2168,0.2171,0.2185,0.219,0.2204,0.2207,0.2217,0.2235,0.2243,0.225,0.2262,0.2264,0.2265,0.2269,0.2277,0.2279,0.228,0.2285,0.2286,0.2266,0.2266,0.2266,0,0.2119,0.2136,0.2144,0.2156,0.2164,0.2169,0.2181,0.2189,0.2204,0.2209,0.2208,0.2231,0.2239,0.2256,0.2259,0.2264,0.2267,0.2264,0.2278,0.2279,0.228,0.2285,0.2287,0.2266,0.2266,0.2266,0.2266,0,0.2135,0.2147,0.2154,0.217,0.2179,0.219,0.22,0.2208,0.2212,0.2219,0.2233,0.2243,0.2256,0.226,0.2264,0.2278,0.2277,0.2277,0.2274,0.2282,0.2286,0.2288,0.2267,0.2266,0.2266,0.2266,0,0,0.2139,0.2161,0.2163,0.2171,0.2187,0.2196,0.2208,0.2222,0.2228,0.2239,0.2249,0.2265,0.2265,0.2273,0.2277,0.2285,0.2295,0.2284,0.2284,0.2286,0.231,0.231,0.2312,0.2296,0.2296,0.2297,0.231,0,0.2149,0.2171,0.2179,0.2197,0.2209,0.2215,0.2225,0.2236,0.2243,0.2253,0.2261,0.2272,0.2272,0.2276,0.2284,0.2292,0.23,0.2291,0.2305,0.2306,0.2302,0.2315,0.2314,0.2326,0.2311,0.2312,0.2312,0,0.2163,0.2176,0.2195,0.221,0.2215,0.2225,0.2238,0.2248,0.2261,0.2265,0.2274,0.2279,0.2291,0.2288,0.2306,0.23,0.2306,0.2311,0.2311,0.2313,0.2309,0.2316,0.233,0.2332,0.2315,0.2314,0.2314,0,0.2165,0.2186,0.2201,0.2207,0.2225,0.2232,0.224,0.2252,0.226,0.2272,0.2277,0.229,0.2297,0.2306,0.2314,0.2311,0.2331,0.2328,0.2335,0.2335,0.2338,0.2338,0.2353,0.2342,0.2342,0.2342,0.2342,0,0.2175,0.2186,0.2202,0.2211,0.2224,0.2234,0.2247,0.2255,0.2266,0.2276,0.2282,0.2291,0.2301,0.2312,0.2318,0.2332,0.2335,0.2339,0.234,0.2338,0.2338,0.2342,0.2342,0.2343,0.2343,0.2343,0.2343,0,0.2178,0.2189,0.2206,0.2222,0.2227,0.2236,0.225,0.2259,0.2267,0.228,0.2283,0.2296,0.2309,0.2318,0.2334,0.2338,0.2353,0.2354,0.2349,0.235,0.2356,0.2356,0.2375,0.2378,0.2365,0.2365,0.2365,0,0.2184,0.2193,0.2212,0.222,0.2228,0.224,0.2249,0.2259,0.2268,0.2283,0.229,0.2304,0.2315,0.2336,0.2346,0.2359,0.236,0.2366,0.2362,0.236,0.2361,0.236,0.2361,0.2367,0.2367,0.2367,0.2367,0,0.2193,0.2198,0.2211,0.2226,0.2237,0.2249,0.226,0.2266,0.2279,0.2288,0.2302,0.2311,0.2329,0.2343,0.2357,0.2364,0.2368,0.2368,0.2371,0.2369,0.2365,0.2367,0.2351,0.2368,0.2368,0.2368,0.2368,0.2368,0.2198,0.2207,0.2222,0.2236,0.2246,0.2258,0.2267,0.2277,0.2289,0.2305,0.231,0.2325,0.2338,0.2357,0.2365,0.2376,0.2376,0.2379,0.238,0.238,0.2381,0.2364,0.2379,0.2379,0.2379,0.2379,0.2379,0,0.2208,0.2218,0.2231,0.2248,0.2259,0.2263,0.2277,0.2286,0.2299,0.2311,0.2323,0.234,0.2353,0.2365,0.2379,0.2386,0.2388,0.2389,0.2388,0.239,0.238,0.2377,0.2387,0.2387,0.2387,0.2387,0.2387,0.2387,0.2214,0.223,0.2237,0.2258,0.2268,0.2283,0.2291,0.2301,0.2311,0.233,0.2342,0.2349,0.2361,0.2377,0.2389,0.2392,0.2397,0.2398,0.2401,0.2392,0.2391,0.239,0.2387,0.2399,0.2399,0.241,0.2411,0.2411]}]]